[[{"header":{"parameterUnit":"m.s-1","parameterCategory":1,"la1":30.2991,"la2":30.254,"lo1":-89.0895,"lo2":-89.0444,"dy":0.0017,"dx":0.0017,"nx":28,"ny":28,"refTime":"2024-03-01T09:00:00:Z","depth":0,"parameterNumber":2,"parameterNumberName":"U-component_of_WINDS"},"data":[0,0,0,0,0,0,0,0,0,0,0,0,0,0,0,0,0,0,0,0,0,0,0,0,0,0,0,0,0,0,0,0,0,0,0,0,0,0,0,0,0,0,0,0,0,0,0,0,0,0,0,0,0,0,0,0,0,0,1.2736,1.2735,0,1.259,1.2588,1.2586,1.2484,1.2483,1.2483,1.2482,1.2323,1.2319,1.2316,0,0,0,0,0,0,0,0,0,0,0,0,0,1.2919,1.2917,1.2736,1.2735,1.2733,1.259,1.2588,1.2586,1.2484,1.2483,1.2482,1.2482,1.2324,1.232,1.2316,0,0,0,0,0,0,0,0,0,0,0,0,0,1.2813,1.2916,1.2737,1.2665,1.2657,1.259,1.2588,1.2585,1.2485,1.2483,1.2482,1.2481,1.2325,1.232,1.2315,1.2305,0,0,1.2299,1.2296,0,0,0,0,0,0,0,0,1.2819,1.2806,1.2677,1.267,1.2661,1.2554,1.2594,1.2491,1.2485,1.255,1.2482,1.2481,1.24,1.2389,1.2363,1.2297,1.229,1.2298,1.2295,1.2293,1.2291,0,0,0,0,0,0,0,1.2827,1.2812,1.2678,1.2676,1.2666,1.2637,1.2621,1.2574,1.2483,1.2544,1.2536,1.2521,1.2395,1.2369,1.2359,1.2288,1.2298,1.2294,1.229,1.2288,1.2204,1.2205,0,0,0,0,0,0,1.2847,1.2819,1.2683,1.2674,1.2739,1.2635,1.2617,1.2589,1.2483,1.2466,1.2522,1.2517,1.2378,1.2365,1.2353,1.2333,1.2293,1.2288,1.2285,1.2203,1.2204,1.2205,0,0,0,0,0,0,1.2851,1.2835,1.2689,1.2744,1.2723,1.2633,1.2603,1.2587,1.256,1.2467,1.2449,1.2512,1.2377,1.236,1.2318,1.2326,1.2285,1.2281,1.2202,1.2203,1.2205,1.2293,0,0,0,0,0,0,1.2857,1.2838,1.2835,1.2745,1.2721,1.2659,1.2604,1.2585,1.2553,1.2544,1.2453,1.2436,1.2375,1.2326,1.2312,1.2318,1.2276,1.2201,1.2202,1.2204,1.2289,1.2298,1.2305,0,0,0,0,0,1.2863,1.2864,1.2836,1.282,1.2716,1.266,1.2646,1.2578,1.2554,1.2549,1.2488,1.2439,1.2327,1.2323,1.2306,1.231,1.22,1.2202,1.2204,1.2286,1.2296,1.2305,0,0,0,0,0,0,1.2955,1.2851,1.2818,1.2791,1.2735,1.2643,1.2635,1.2591,1.2539,1.2533,1.2447,1.2427,1.2393,1.2347,1.2344,1.2293,1.2257,1.2256,1.2325,1.2334,1.2342,1.2353,1.2272,0,0,0,0,0,1.2972,1.2938,1.2848,1.2832,1.2807,1.2726,1.2699,1.2651,1.2589,1.2564,1.25,1.2439,1.239,1.2359,1.2309,1.2282,1.2259,1.2276,1.2284,1.2291,1.2291,1.2271,1.2277,1.2212,1.2212,1.2212,0,0,1.3007,1.2946,1.2929,1.2849,1.2801,1.2764,1.2707,1.2671,1.2642,1.2557,1.2514,1.2465,1.2391,1.2356,1.2337,1.2317,1.2304,1.2294,1.23,1.2296,1.2274,1.228,1.2286,1.2213,1.2213,1.2213,0,0,1.3052,1.3003,1.2984,1.2937,1.2866,1.2812,1.2808,1.2722,1.2687,1.2643,1.2578,1.2541,1.2459,1.2408,1.2372,1.2397,1.2349,1.2383,1.2423,1.2405,1.241,1.2414,1.2421,1.2425,1.2383,1.2383,1.2383,0,1.3103,1.3049,1.2979,1.2948,1.2913,1.2838,1.2816,1.2773,1.2687,1.2664,1.2643,1.2537,1.2482,1.2434,1.244,1.2414,1.2403,1.2393,1.2416,1.2419,1.2421,1.2427,1.2431,1.2388,1.2387,1.2387,1.2386,0,1.3115,1.3078,1.307,1.2993,1.2957,1.2931,1.2855,1.2826,1.2782,1.2729,1.2684,1.2615,1.2549,1.2534,1.2489,1.2478,1.2468,1.2432,1.2394,1.2434,1.2438,1.2439,1.2394,1.2393,1.2391,1.239,0,0,1.3213,1.3098,1.3096,1.3059,1.2975,1.2943,1.2912,1.285,1.2827,1.277,1.2739,1.2672,1.2638,1.2597,1.2545,1.253,1.2552,1.2495,1.2492,1.2507,1.2534,1.2561,1.2565,1.252,1.252,1.252,1.254,0,1.3243,1.3187,1.3124,1.3088,1.3051,1.2979,1.2951,1.2894,1.2844,1.2804,1.2746,1.27,1.266,1.2634,1.2616,1.2554,1.2556,1.2551,1.2488,1.2487,1.2509,1.2567,1.2595,1.2617,1.2541,1.2541,1.2541,0,1.3272,1.3222,1.3184,1.3102,1.3084,1.3061,1.2998,1.2961,1.2894,1.2858,1.2813,1.2758,1.2718,1.2685,1.2627,1.2626,1.2595,1.2561,1.256,1.255,1.2516,1.2558,1.2622,1.2626,1.2543,1.2543,1.2543,0,1.3346,1.3269,1.3236,1.3206,1.311,1.3095,1.3053,1.2986,1.2952,1.2896,1.2873,1.2813,1.2779,1.2732,1.2661,1.2644,1.261,1.2571,1.2576,1.2578,1.2572,1.2573,1.2631,1.2555,1.2555,1.2555,1.2555,0,1.3387,1.3366,1.3268,1.3247,1.3221,1.3146,1.312,1.3072,1.3012,1.2978,1.2911,1.288,1.2789,1.2746,1.2689,1.2649,1.2634,1.2602,1.2587,1.2608,1.2612,1.2586,1.2582,1.2555,1.2555,1.2555,1.2555,0,1.3465,1.3399,1.3358,1.3271,1.3248,1.3232,1.3155,1.3131,1.3077,1.3035,1.3021,1.2935,1.2881,1.2806,1.2728,1.269,1.2657,1.2634,1.2681,1.2672,1.268,1.268,1.2723,1.2724,1.2649,1.265,1.2651,0,1.3496,1.3478,1.339,1.3364,1.3326,1.3285,1.3251,1.3176,1.3142,1.3064,1.3049,1.299,1.294,1.2856,1.2785,1.2724,1.2698,1.2717,1.2688,1.2709,1.2697,1.2698,1.2695,1.2724,1.2726,1.2727,1.2727,0,1.3556,1.3524,1.348,1.3424,1.3386,1.3337,1.3285,1.3267,1.318,1.3145,1.3091,1.3052,1.2974,1.2915,1.2846,1.2798,1.2747,1.2737,1.2735,1.2755,1.2783,1.2767,1.2699,1.2736,1.2735,1.2735,1.2734,1.2734,1.361,1.3591,1.3526,1.3478,1.3431,1.3384,1.3357,1.3301,1.3255,1.3188,1.3145,1.3092,1.3023,1.2924,1.2879,1.2834,1.2814,1.2811,1.281,1.281,1.2817,1.2791,1.2821,1.2821,1.2821,1.282,1.282,0,1.3665,1.362,1.3577,1.3508,1.347,1.3429,1.3368,1.3338,1.3294,1.3235,1.3187,1.3124,1.3067,1.2991,1.2928,1.2906,1.2881,1.2892,1.2892,1.2882,1.2839,1.2847,1.2913,1.2913,1.2913,1.2913,1.2913,1.2913,1.369,1.3655,1.3615,1.3555,1.3509,1.3459,1.3428,1.3383,1.3336,1.3269,1.3223,1.3175,1.3108,1.304,1.2984,1.2963,1.2942,1.296,1.2932,1.2893,1.2885,1.2877,1.2884,1.2957,1.2957,1.2977,1.2978,1.2978]},{"header":{"parameterUnit":"m.s-1","parameterCategory":1,"la1":30.2991,"la2":30.254,"lo1":-89.0895,"lo2":-89.0444,"dy":0.0017,"dx":0.0017,"nx":28,"ny":28,"refTime":"2024-03-01T09:00:00:Z","depth":0,"parameterNumber":3,"parameterNumberName":"V-component_of_WINDS"},"data":[0,0,0,0,0,0,0,0,0,0,0,0,0,0,0,0,0,0,0,0,0,0,0,0,0,0,0,0,0,0,0,0,0,0,0,0,0,0,0,0,0,0,0,0,0,0,0,0,0,0,0,0,0,0,0,0,0,0,0.1812,0.1816,0,0.2194,0.2199,0.2203,0.2355,0.2354,0.2353,0.2352,0.2754,0.2766,0.2777,0,0,0,0,0,0,0,0,0,0,0,0,0,0.1222,0.1232,0.1811,0.1816,0.1821,0.2193,0.2199,0.2204,0.2355,0.2353,0.2352,0.2351,0.2751,0.2764,0.2778,0,0,0,0,0,0,0,0,0,0,0,0,0,0.1529,0.1235,0.1811,0.1941,0.1956,0.2192,0.2199,0.2205,0.2355,0.2353,0.2352,0.2351,0.2746,0.2763,0.278,0.2919,0,0,0.2834,0.2841,0,0,0,0,0,0,0,0,0.1511,0.155,0.1917,0.1932,0.195,0.2225,0.2139,0.2445,0.2355,0.2204,0.2352,0.235,0.258,0.2611,0.2687,0.2937,0.2955,0.2835,0.2846,0.2853,0.2858,0,0,0,0,0,0,0,0.149,0.1535,0.1963,0.1922,0.1942,0.1984,0.2026,0.2198,0.2396,0.2217,0.2229,0.2271,0.2589,0.2669,0.2697,0.2961,0.2835,0.285,0.2861,0.2868,0.3346,0.3348,0,0,0,0,0,0,0.1445,0.1516,0.1951,0.1975,0.1722,0.1995,0.2042,0.2138,0.2395,0.2432,0.2272,0.2277,0.264,0.2677,0.2712,0.2892,0.2853,0.287,0.288,0.3344,0.3347,0.3349,0,0,0,0,0,0,0.1432,0.1483,0.1936,0.1749,0.1809,0.2007,0.2114,0.2147,0.2227,0.2436,0.2474,0.2317,0.2641,0.2687,0.2866,0.2908,0.2878,0.2893,0.3341,0.3345,0.3348,0.3251,0,0,0,0,0,0,0.1415,0.1477,0.1529,0.1749,0.1819,0.2079,0.2116,0.2155,0.2256,0.2265,0.2488,0.2524,0.2643,0.2839,0.2883,0.2931,0.2907,0.3339,0.3343,0.3347,0.3252,0.3251,0.325,0,0,0,0,0,0.1393,0.1489,0.1531,0.1583,0.1887,0.2081,0.2122,0.2253,0.2258,0.2314,0.2449,0.2517,0.2895,0.2856,0.2907,0.2961,0.3337,0.3342,0.3347,0.3252,0.3251,0.325,0,0,0,0,0,0,0.1273,0.152,0.1569,0.1738,0.1887,0.2106,0.2181,0.2248,0.2402,0.2405,0.2565,0.2615,0.278,0.2889,0.284,0.3109,0.3122,0.3137,0.3032,0.3033,0.3032,0.3003,0.2922,0,0,0,0,0,0.1265,0.1399,0.1609,0.1738,0.181,0.1981,0.2071,0.2159,0.2322,0.2387,0.2534,0.2692,0.2847,0.2946,0.31,0.3268,0.332,0.3331,0.333,0.3328,0.334,0.3439,0.3447,0.3365,0.3365,0.3365,0,0,0.1253,0.1404,0.1479,0.1718,0.1843,0.1981,0.2034,0.2178,0.2283,0.241,0.2586,0.27,0.2887,0.306,0.3145,0.3157,0.3374,0.3335,0.3332,0.3345,0.3445,0.3452,0.3459,0.3369,0.3368,0.3368,0,0,0.13,0.1427,0.1548,0.1673,0.1861,0.1975,0.2003,0.2213,0.2292,0.2471,0.2569,0.2698,0.2961,0.3091,0.3191,0.3286,0.3356,0.3332,0.3329,0.3423,0.343,0.3436,0.3472,0.3483,0.3343,0.3343,0.3343,0,0.1262,0.147,0.1603,0.1741,0.1844,0.1962,0.2088,0.2203,0.2434,0.2504,0.2513,0.2845,0.2979,0.3185,0.3208,0.3285,0.3326,0.3308,0.3417,0.3425,0.3433,0.3469,0.3482,0.3339,0.3339,0.334,0.334,0,0.1414,0.1557,0.1633,0.1848,0.196,0.2091,0.2248,0.2346,0.2424,0.2537,0.2719,0.2884,0.3074,0.3129,0.3209,0.3348,0.3349,0.3385,0.3401,0.3435,0.3471,0.3486,0.3333,0.3335,0.3336,0.3337,0,0,0.1398,0.1683,0.1709,0.1809,0.2025,0.214,0.2277,0.2459,0.2541,0.2696,0.2817,0.3036,0.3071,0.3185,0.328,0.3362,0.3429,0.339,0.3397,0.3393,0.3595,0.3566,0.358,0.3476,0.3479,0.3481,0.3579,0,0.1475,0.1722,0.1846,0.2042,0.2177,0.229,0.2411,0.2558,0.2668,0.2801,0.2925,0.3078,0.3111,0.3181,0.3267,0.3402,0.3472,0.3397,0.3594,0.3599,0.3544,0.3599,0.357,0.3654,0.3594,0.3597,0.3599,0,0.1598,0.1747,0.1954,0.2155,0.2216,0.2322,0.2499,0.2624,0.2794,0.2869,0.2994,0.3087,0.324,0.3243,0.3458,0.3404,0.3492,0.3571,0.3578,0.3603,0.3602,0.3627,0.3684,0.3697,0.3622,0.362,0.3619,0,0.1566,0.182,0.1977,0.2059,0.2296,0.2368,0.2471,0.2639,0.2741,0.2897,0.2965,0.3138,0.3233,0.3366,0.3505,0.3493,0.3707,0.3721,0.3776,0.3773,0.3817,0.3813,0.3891,0.3871,0.3871,0.387,0.387,0,0.164,0.1763,0.1966,0.2063,0.2205,0.2348,0.2486,0.2598,0.2747,0.287,0.298,0.3095,0.3269,0.3406,0.3516,0.3678,0.3721,0.3788,0.3816,0.3779,0.377,0.384,0.3838,0.3874,0.3873,0.3873,0.3872,0,0.1629,0.177,0.1949,0.2158,0.2213,0.2309,0.249,0.259,0.2704,0.2859,0.2904,0.3085,0.3253,0.3403,0.3626,0.37,0.3866,0.39,0.3807,0.3822,0.3869,0.3863,0.3996,0.4022,0.3982,0.3982,0.3982,0,0.1668,0.1764,0.1982,0.2071,0.217,0.2312,0.2415,0.256,0.2664,0.2865,0.2942,0.3116,0.3263,0.3526,0.368,0.3852,0.3892,0.3927,0.3919,0.3879,0.3895,0.3888,0.3899,0.3926,0.3926,0.3925,0.3925,0,0.1721,0.1786,0.1928,0.2095,0.2213,0.2353,0.2496,0.2563,0.2737,0.2848,0.3018,0.3131,0.3357,0.353,0.3719,0.383,0.3908,0.3926,0.3948,0.3912,0.3855,0.3888,0.3805,0.3923,0.3923,0.3923,0.3923,0.3924,0.1738,0.1829,0.1996,0.2152,0.2274,0.2405,0.2509,0.2635,0.2778,0.297,0.3049,0.3222,0.3393,0.3653,0.3763,0.3904,0.3919,0.3951,0.3959,0.3965,0.3959,0.383,0.3939,0.3939,0.3939,0.394,0.394,0,0.1799,0.1911,0.2052,0.2247,0.237,0.2427,0.2589,0.2689,0.2839,0.2989,0.313,0.3327,0.3495,0.3661,0.3839,0.392,0.396,0.3962,0.3959,0.3983,0.3935,0.3898,0.3926,0.3926,0.3926,0.3926,0.3926,0.3926,0.1845,0.2002,0.2086,0.2307,0.242,0.2587,0.2675,0.2798,0.2918,0.3131,0.3269,0.3375,0.3534,0.3724,0.3882,0.3927,0.3988,0.398,0.4035,0.3987,0.3986,0.3986,0.3953,0.3992,0.3992,0.4073,0.4074,0.4074]}]]